Terminal Aerodrome Forecast
Issued by NWS Midland/Odessa, TX

Home | Current Version | Previous Version | Text Only | Print | Product List | Glossary On
Versions: 1 2 3 4 5 6 7 8 9 10 11 12 13 14 15 16 17 18
000
FTUS44 KMAF 220000 AAA
TAFMAF
TAF AMD
KMAF 220016Z 2200/2224 17012G20KT P6SM FEW050
      TEMPO 2200/2202 VRB20G30KT -TSRA SCT050CB
     FM220200 16010KT P6SM SCT150
     FM221400 17014G22KT P6SM FEW050=

USA.gov is the U.S. government's official web portal to all federal, state and local government web resources and services.